Regional Weather Roundup
Issued by NWS

Home | Current Version | Previous Version | Graphics & Text | Print | Product List | Glossary Off
Versions: 1 2 3 4 5 6 7 8 9 10 11 12 13 14 15 16 17 18 19 20 21 22 23 24 25 26 27 28 29 30 31 32 33 34 35 36 37 38 39 40 41 42 43 44 45 46 47 48 49 50

000
ASUS43 KTOP 201559
RWRKS

WEATHER ROUNDUP FOR KANSAS
NATIONAL WEATHER SERVICE GOODLAND KS
1100 AM CDT WED SEP 20 2017

NOTE:  "FAIR" INDICATES FEW OR NO CLOUDS BELOW 12,000 FEET WITH NO
SIGNIFICANT WEATHER AND/OR OBSTRUCTIONS TO VISIBILITY.

KSZ001>006-013>018-027>032-041>047-201700-
NORTHWEST KANSAS

CITY           SKY/WX    TMP DP  RH WIND       PRES   REMARKS
GOODLAND       SUNNY     66  27  23 N12       29.99S
HAYS           SUNNY     71  44  37 N16       29.91R
HILL CITY      SUNNY     70  43  37 N13       29.95S
RUSSELL        SUNNY     73  44  35 N18       29.87S
$$

KSZ061>065-074>080-084>089-201700-
SOUTHWEST KANSAS

CITY           SKY/WX    TMP DP  RH WIND       PRES   REMARKS
DODGE CITY     SUNNY     71  40  32 N16G24    29.92R
ELKHART          N/A     63  38  39 N9          N/A
GARDEN CITY    SUNNY     68  35  29 N16       29.97R
GREAT BEND     SUNNY     73  46  38 N17       29.87S
LIBERAL        SUNNY     67  39  35 N16       29.97R
$$

KSZ066>073-081>083-090>101-201700-
SOUTHEAST KANSAS

CITY           SKY/WX    TMP DP  RH WIND       PRES   REMARKS
CHANUTE        MOSUNNY   84  73  69 S20G25    29.84R
COFFEYVILLE    MOSUNNY   85  74  69 S16G24    29.83S
HUTCHINSON     SUNNY     76  53  44 N6        29.83R
MEDICINE LODGE   N/A     75  49  39 N10       29.84R
NEWTON         SUNNY     79  66  64 W12       29.82R
WICHITA INTL   MOSUNNY   84  67  56 W12G25    29.80R
WICHITA JABRA  MOSUNNY   82  68  62 S14       29.80R
WINFIELD       PTSUNNY   84  71  65 SW20G25   29.82S
$$

KSZ007>012-019>026-033>040-048>060-102>105-201700-
NORTHEAST KANSAS

CITY           SKY/WX    TMP DP  RH WIND       PRES   REMARKS
CONCORDIA      SUNNY     73  52  47 N17       29.84R
EMPORIA        MOSUNNY   83  68  60 SW15G25   29.80R
LAWRENCE       PTSUNNY   83  72  69 S13       29.79S
MANHATTAN      SUNNY     83  66  56 W13       29.78R
OLATHE IND     PTSUNNY   82  72  71 S17       29.82S
OLATHE EXE     PTSUNNY   81  73  76 SW16G23   29.82S
SALINA         SUNNY     75  53  46 NW13      29.83R
TOPEKA BILLARD MOSUNNY   82  71  69 S12G21    29.78R
TOPEKA FORBES  MOSUNNY   83  71  67 S16G23    29.79R
$$



USA.gov is the U.S. government's official web portal to all federal, state and local government web resources and services.